Temperature
16 16 16 16 16 16 16 17 16 16 16 16 16 16 16 16 16 16 16 16 16 16 16 16 16 16 16 16 17 17 17 17 17 17 17 17 17 17 17 17 17 17 17
16 16 16 16 16 16 16 16 16 16 16 16 16 16 16 16 16 16 16 16 16 16 16 16 16 16 16 16 16 16 17 17 17 17 17 17 17 17 17 17 17 17 17
16 16 16 16 16 16 16 16 16 16 16 16 16 16 16 16 15 15 15 15 15 15 16 16 16 16 16 16 16 16 16 16 17 17 17 17 17 17 17 17 17 17 17
16 16 16 16 16 16 16 16 16 16 16 16 16 16 16 15 15 15 15 15 15 15 15 15 15 15 16 16 16 16 16 16 16 16 16 16 16 17 17 17 17 17 17
16 16 16 16 16 16 16 16 16 16 16 16 15 15 15 15 15 15 15 15 15 15 15 15 15 15 15 15 15 15 16 16 16 16 16 16 16 16 16 17 17 17 16
16 16 16 16 16 16 16 16 16 16 16 16 16 15 15 15 15 15 15 15 15 15 15 15 15 15 15 15 15 15 15 16 16 16 16 16 16 16 16 16 16 16 16
16 16 16 16 16 16 16 15 16 15 16 16 16 15 15 15 15 15 15 15 15 15 14 14 14 15 15 15 15 15 15 15 15 15 16 16 16 16 16 16 16 16 16
16 16 16 16 16 16 15 15 15 15 15 16 16 15 15 15 15 15 15 15 14 15 14 14 14 14 15 15 15 15 15 15 15 15 15 15 15 16 16 16 16 16 16
16 16 16 16 16 16 15 15 15 15 15 15 15 16 15 15 15 15 15 14 14 14 14 14 14 14 14 14 15 14 15 15 15 15 15 15 15 15 15 16 16 16 16
16 16 16 15 15 15 15 15 15 15 15 15 15 15 15 15 15 15 14 14 14 14 14 14 14 14 14 14 14 14 15 15 15 15 15 15 15 15 15 15 15 15 15
16 16 16 15 15 15 15 15 15 15 15 15 15 15 15 16 15 15 14 14 14 14 14 14 14 14 14 14 14 14 14 15 15 15 15 15 15 15 15 15 15 15 15
15 15 15 15 15 15 15 15 15 15 15 15 15 15 15 15 15 15 15 14 14 14 14 14 14 14 14 14 14 14 14 14 14 15 15 15 15 15 15 15 15 15 15
15 15 15 15 15 15 15 15 15 15 15 15 15 15 15 15 15 15 15 14 14 14 14 14 14 14 14 14 14 14 14 14 14 14 14 14 15 15 15 15 15 15 15
16 16 15 15 15 15 15 15 15 15 15 15 15 15 15 15 15 15 15 14 14 14 14 14 13 14 14 14 14 14 14 14 14 14 14 14 14 14 14 14 14 14 14
16 15 15 15 15 15 15 15 15 15 15 15 15 15 15 15 15 15 15 14 14 14 14 13 13 13 14 14 14 14 14 13 13 13 13 14 14 14 14 14 14 14 14
16 16 15 15 15 15 15 15 15 15 15 15 15 15 15 15 15 15 15 15 14 14 14 13 13 13 13 13 13 13 13 13 13 13 13 13 13 13 13 13 13 14 14
16 16 15 15 15 15 15 15 15 15 15 14 14 14 14 14 15 14 14 14 14 14 14 14 13 13 13 13 13 13 13 13 13 13 13 13 13 13 13 13 13 13 13
16 15 15 15 15 15 15 15 15 15 15 14 14 14 14 14 14 14 14 14 14 14 14 14 13 13 13 13 13 13 13 13 13 12 12 12 13 12 12 12 12 13 12
16 15 15 15 15 15 15 15 15 14 14 14 14 14 14 14 14 14 14 14 14 14 13 13 13 13 13 13 12 12 12 12 12 12 12 12 12 12 12 12 12 12 12
16 15 15 15 15 15 15 15 14 14 14 14 14 14 14 14 14 14 14 14 13 13 13 13 13 13 12 12 12 12 12 12 12 12 11 12 12 12 12 11 11 11 11
15 15 15 15 15 15 15 14 14 14 14 14 14 14 14 14 14 14 14 14 13 13 13 13 13 12 12 12 12 12 12 11 11 11 11 11 11 11 11 11 11 11 11
15 15 15 15 15 15 14 14 14 14 14 14 14 13 13 13 13 13 13 13 13 13 13 13 12 12 12 12 12 11 11 11 11 11 11 11 11 11 11 11 11 11 11
15 15 15 15 14 14 14 14 14 14 14 13 13 13 13 13 13 13 13 13 13 13 12 12 12 12 12 12 11 11 11 11 11 11 11 11 11 10 10 10 10 10 10
15 15 14 14 14 14 14 14 14 14 13 13 13 13 13 13 13 13 13 12 12 12 12 12 12 12 12 11 11 11 11 11 11 10 10 10 10 10 10 10 10 10 10
15 15 14 14 14 14 14 14 14 13 13 13 13 13 13 13 12 12 12 12 12 12 12 11 11 11 11 11 11 11 10 10 10 10 10 9 10 10 10 10 9 9 9
15 14 14 14 14 14 13 13 13 13 13 13 13 13 12 12 12 12 12 12 11 11 11 11 11 11 11 11 11 10 10 10 10 9 9 9 9 8 9 9 9 9 8
Wind_Speed
2 2 3 4 4 4 3 4 5 5 6 8 9 8 7 9 11 12 11 15 15 14 14 13 12 12 12 11 11 11 10 10 10 11 10 10 9 9 9 9 8 7 7
3 2 3 2 3 4 3 3 4 4 5 5 6 7 7 8 9 11 11 12 15 15 15 14 14 13 13 12 12 12 11 11 10 11 11 10 9 9 9 9 9 8 8
5 4 2 2 3 4 5 5 5 5 4 4 5 6 6 7 8 9 10 10 11 14 15 15 15 15 14 14 13 12 11 11 11 11 10 10 10 10 10 9 9 9 9
9 6 3 2 4 5 3 3 3 4 4 4 4 4 4 5 6 8 9 9 9 10 12 14 15 15 15 15 14 13 12 12 11 11 11 11 11 11 10 10 10 9 9
10 6 3 3 6 4 3 3 4 3 3 3 3 4 4 4 5 7 7 9 10 10 10 12 14 15 15 15 15 14 14 13 11 11 11 11 11 11 11 10 9 8 8
10 7 4 6 7 4 4 3 4 4 3 2 4 4 3 4 4 4 5 8 9 10 10 10 10 12 15 15 15 15 15 14 13 12 12 12 12 11 10 10 9 8 8
8 6 4 5 4 4 4 4 3 2 2 2 3 3 3 4 5 4 4 4 6 8 10 10 10 10 11 14 16 16 16 15 14 14 13 13 12 11 10 9 8 8 7
7 5 4 3 3 3 5 5 4 3 2 2 2 2 2 2 3 4 3 4 4 7 7 10 11 11 11 11 13 15 15 14 14 14 13 13 12 11 11 10 9 8 8
7 7 5 4 3 3 3 3 3 3 2 2 2 2 2 2 1 2 3 4 4 4 4 8 11 12 12 12 12 14 15 14 13 13 13 13 12 12 11 10 9 8 8
5 6 5 5 4 3 4 3 3 2 3 2 2 2 2 2 2 1 2 3 4 5 5 6 8 11 12 11 12 13 14 14 14 13 13 13 12 11 11 11 10 9 9
4 5 5 4 3 3 4 4 5 5 3 3 2 2 2 2 2 2 2 1 2 3 4 5 6 8 10 10 10 12 12 13 13 13 13 13 13 11 10 10 9 9 9
2 3 4 4 4 3 3 3 3 4 4 4 4 3 2 2 1 1 2 2 2 2 3 3 4 5 7 8 9 10 11 12 12 12 13 13 13 12 11 11 10 10 9
2 2 3 3 3 3 3 3 3 3 3 4 4 3 3 3 2 2 2 2 2 1 2 2 2 4 6 7 7 9 9 11 11 12 12 12 12 12 12 12 12 11 11
2 2 3 3 3 3 3 3 2 2 3 3 4 4 3 3 3 3 2 2 1 1 2 2 1 4 4 5 6 7 7 8 9 10 11 12 11 11 12 12 12 12 12
2 2 3 3 3 3 3 2 2 2 3 3 3 3 2 2 3 3 2 2 2 1 1 1 1 1 3 4 4 4 4 6 7 8 9 10 10 11 11 11 11 11 11
2 1 2 3 2 3 3 2 2 2 3 2 2 3 3 2 2 2 2 3 2 2 1 1 1 1 2 2 2 3 3 4 5 5 6 7 8 9 9 10 10 10 10
2 1 2 3 3 3 3 2 2 2 2 1 2 3 3 2 2 2 2 2 2 2 2 0 1 1 2 1 1 1 2 3 2 2 3 4 5 6 7 8 8 9 9
2 2 1 2 2 2 2 3 2 2 2 2 2 2 2 2 2 1 2 2 1 1 2 1 1 1 1 0 0 1 1 0 1 0 1 1 2 4 5 5 6 7 7
2 2 2 2 2 2 2 2 2 1 2 2 1 2 1 2 1 1 1 1 1 1 1 1 1 0 1 1 1 1 1 1 2 1 2 1 1 2 3 3 4 5 6
2 1 2 2 2 2 2 1 1 1 1 1 1 1 1 2 2 1 1 1 1 1 1 0 0 0 1 1 1 1 2 2 2 2 1 2 3 2 2 2 3 3 4
2 1 2 2 2 2 1 2 1 0 0 0 1 1 2 3 4 3 2 2 2 1 1 1 1 1 1 1 1 1 2 2 2 1 1 2 2 3 3 3 4 4 4
1 1 2 3 2 2 3 3 2 2 1 1 0 1 2 2 3 3 3 2 2 1 0 1 1 1 1 1 1 1 1 2 3 3 1 3 1 2 3 4 5 5 5
2 1 1 2 2 2 3 2 1 1 2 1 1 1 0 1 2 1 1 1 1 1 1 1 1 2 2 2 2 2 2 2 3 3 2 3 2 3 4 6 6 6 7
3 3 2 2 2 3 4 2 1 1 1 2 2 1 0 1 1 1 1 1 1 2 2 1 2 2 2 2 2 2 3 3 3 3 1 3 3 3 4 5 7 8 8
3 3 3 3 3 3 4 4 3 1 1 2 2 1 1 1 1 2 1 1 1 2 3 4 4 4 5 5 4 2 3 3 4 4 2 2 3 4 4 3 7 10 10
4 3 3 4 4 4 5 5 5 2 2 2 2 1 1 1 1 1 0 1 3 4 3 3 4 5 6 6 6 3 3 2 3 3 2 1 3 3 4 4 3 6 8
Wind_Direction
27 26 62 48 45 46 36 34 46 53 48 49 56 55 60 78 79 85 78 70 66 65 68 70 70 69 66 63 59 56 52 53 54 56 57 59 59 57 59 58 64 71 73
42 25 61 54 50 53 48 55 67 63 58 58 57 51 53 67 83 94 93 80 71 67 65 66 67 64 62 61 58 56 51 51 52 55 57 59 61 60 61 61 64 64 68
51 38 39 39 32 45 54 55 57 60 71 71 65 56 51 53 67 84 93 95 86 72 67 65 65 63 60 58 56 54 50 51 52 54 56 58 58 57 59 61 62 62 62
55 41 30 24 38 39 52 65 61 60 61 59 61 58 59 49 57 71 82 85 86 84 74 70 67 63 61 58 55 53 51 52 53 54 55 58 57 56 59 60 60 60 60
46 51 26 22 39 35 28 54 62 74 74 71 80 73 66 56 45 58 62 71 78 83 83 78 69 63 61 57 54 51 48 48 53 57 59 59 58 55 54 56 57 58 59
38 35 41 37 34 32 28 49 61 67 77 73 79 82 79 80 61 45 46 56 67 74 78 78 74 65 60 55 52 48 46 49 54 58 58 57 55 52 51 52 53 56 60
36 39 45 45 41 38 30 43 52 67 71 90 88 74 54 65 83 66 53 54 57 61 71 72 73 71 64 55 50 47 44 50 54 55 55 54 52 49 47 47 50 55 60
32 37 54 64 60 49 35 39 42 38 23 49 83 114 100 40 40 72 68 58 56 56 61 68 69 70 70 64 52 48 44 47 50 52 51 50 49 47 43 41 49 56 60
32 24 42 61 55 63 60 47 43 55 24 3 48 76 105 121 100 37 75 70 65 58 57 66 65 65 65 62 53 47 46 45 46 48 46 45 43 43 39 42 52 56 59
52 26 36 49 55 55 56 36 46 46 41 10 3 28 69 106 121 112 40 59 68 65 57 59 59 64 65 64 55 48 47 46 43 43 41 40 40 40 40 44 52 58 59
59 44 41 46 54 59 58 52 47 36 38 29 21 22 24 32 49 117 123 105 68 68 74 67 64 64 66 64 58 47 47 46 44 41 39 38 38 39 42 44 49 52 53
63 57 54 54 58 57 55 54 59 53 39 25 27 39 44 48 36 78 114 125 119 104 91 80 73 74 75 69 59 50 48 46 45 42 39 38 38 38 37 39 41 42 43
88 74 64 62 65 72 66 59 63 65 63 50 42 28 31 34 37 57 95 112 111 130 110 89 92 88 82 80 66 54 51 49 48 44 41 40 39 37 35 34 35 35 34
95 92 85 83 67 70 77 58 61 53 68 67 61 50 40 23 28 40 68 95 87 72 91 110 90 94 98 91 79 68 58 52 49 47 44 43 42 40 37 34 32 31 29
110 107 116 114 100 82 80 78 79 68 65 60 68 72 64 34 29 25 37 70 112 103 42 63 82 85 107 104 89 87 75 63 55 52 48 44 42 40 38 35 33 30 28
103 155 148 134 129 112 89 69 71 76 91 81 82 74 63 52 31 38 37 32 58 109 109 11 92 126 102 103 95 108 105 87 63 53 49 44 40 37 35 31 29 28 28
160 166 141 133 127 126 127 115 110 91 105 109 104 100 90 71 47 35 37 45 44 79 115 353 43 92 89 70 73 136 154 140 91 56 58 43 35 31 28 27 25 25 24
171 175 155 122 117 114 122 132 137 118 98 79 70 88 95 94 81 47 40 53 58 82 120 128 349 26 55 102 31 333 10 97 149 147 129 52 35 22 20 21 18 18 17
177 173 136 121 121 112 109 115 125 130 117 104 87 76 72 86 90 82 74 45 32 42 92 141 214 352 357 347 10 342 347 334 298 255 211 236 313 353 5 9 7 7 6
165 152 133 126 121 113 101 96 93 88 96 108 107 95 71 74 65 51 57 19 28 21 10 70 151 327 317 309 36 331 323 304 299 317 292 231 244 261 288 312 330 336 344
156 154 129 119 113 109 72 48 28 73 92 156 153 132 112 103 86 75 63 28 28 23 358 4 339 350 331 351 316 285 294 298 299 307 289 254 229 230 248 275 283 294 298
151 145 138 133 131 114 91 73 40 345 321 282 205 156 147 126 127 116 101 81 68 73 8 357 329 296 295 299 304 314 318 332 309 312 315 290 279 249 235 241 256 263 269
149 143 139 137 141 134 128 121 85 325 318 314 313 289 215 148 129 149 186 207 276 304 235 209 246 264 273 290 314 320 307 290 267 271 312 287 287 278 265 252 251 256 265
172 176 177 174 160 154 154 151 172 257 301 320 308 281 178 104 89 109 146 212 226 255 246 229 231 258 270 286 274 272 267 281 284 286 310 277 288 277 281 257 256 260 268
185 182 188 189 180 180 177 173 164 221 258 277 303 353 56 101 43 61 41 307 293 278 264 251 244 263 279 289 296 319 309 304 295 283 260 258 285 293 282 265 264 265 264
192 184 194 196 192 188 180 176 175 197 237 245 245 229 104 113 105 73 334 299 289 285 288 289 284 283 277 274 269 244 238 262 282 288 277 266 287 311 303 282 272 269 267
Height
1551 1551 1551 1551 1551 1551 1551 1552 1552 1552 1552 1552 1552 1552 1552 1551 1551 1551 1550 1550 1550 1549 1549 1549 1549 1549 1549 1548 1548 1548 1547 1547 1546 1546 1545 1545 1545 1545 1545 1544 1545 1545 1544
1552 1552 1552 1552 1552 1552 1553 1553 1553 1553 1553 1553 1553 1553 1553 1553 1553 1552 1552 1552 1552 1551 1551 1551 1551 1550 1550 1549 1549 1548 1548 1548 1547 1547 1547 1546 1546 1546 1546 1546 1546 1545 1545
1553 1552 1553 1553 1553 1553 1554 1554 1554 1554 1555 1555 1555 1555 1555 1555 1555 1555 1554 1554 1554 1553 1553 1552 1552 1552 1551 1550 1550 1549 1549 1549 1548 1548 1547 1547 1547 1547 1547 1546 1546 1546 1546
1553 1553 1553 1553 1554 1554 1554 1555 1555 1555 1556 1556 1556 1556 1556 1557 1557 1557 1556 1556 1555 1555 1555 1554 1554 1553 1552 1552 1551 1551 1550 1549 1549 1548 1548 1548 1548 1547 1547 1547 1547 1547 1546
1554 1554 1554 1554 1554 1554 1555 1555 1556 1556 1557 1557 1557 1558 1558 1558 1558 1559 1558 1558 1557 1557 1556 1556 1555 1554 1554 1553 1552 1552 1550 1549 1548 1548 1548 1548 1548 1548 1547 1547 1547 1547 1546
1555 1555 1555 1555 1555 1555 1555 1556 1556 1557 1558 1558 1559 1559 1559 1560 1560 1560 1560 1560 1559 1559 1558 1557 1556 1556 1555 1554 1553 1553 1551 1549 1548 1548 1548 1549 1548 1548 1547 1547 1546 1546 1546
1556 1556 1556 1555 1555 1555 1556 1556 1557 1558 1559 1559 1560 1560 1561 1561 1561 1561 1561 1561 1561 1560 1560 1559 1558 1557 1556 1556 1555 1554 1552 1550 1549 1549 1549 1549 1549 1548 1547 1546 1545 1545 1545
1557 1557 1557 1556 1556 1556 1556 1557 1557 1558 1559 1560 1560 1561 1562 1564 1563 1563 1563 1562 1562 1562 1561 1560 1560 1559 1558 1557 1556 1555 1554 1553 1552 1551 1550 1550 1549 1548 1546 1544 1543 1543 1544
1558 1558 1557 1557 1557 1557 1557 1557 1558 1558 1559 1560 1561 1561 1562 1563 1563 1565 1564 1563 1563 1562 1562 1562 1561 1560 1559 1558 1558 1557 1556 1555 1554 1553 1552 1551 1549 1548 1546 1544 1542 1542 1543
1559 1559 1558 1558 1558 1558 1558 1558 1558 1559 1559 1560 1561 1561 1562 1563 1563 1564 1565 1564 1564 1564 1563 1563 1562 1561 1560 1559 1559 1558 1557 1556 1555 1554 1553 1551 1550 1548 1547 1545 1543 1543 1544
1560 1560 1559 1559 1559 1558 1558 1559 1559 1559 1559 1560 1561 1561 1562 1563 1563 1564 1565 1565 1565 1565 1564 1564 1563 1562 1561 1560 1560 1559 1558 1557 1556 1555 1553 1552 1551 1549 1548 1546 1545 1545 1545
1561 1560 1560 1560 1559 1559 1559 1559 1559 1560 1560 1560 1561 1561 1562 1563 1563 1564 1564 1565 1565 1565 1565 1564 1564 1563 1562 1561 1561 1560 1559 1558 1557 1555 1554 1553 1551 1550 1548 1547 1546 1546 1546
1561 1561 1561 1560 1560 1560 1560 1560 1560 1561 1561 1561 1561 1562 1562 1563 1563 1564 1565 1565 1565 1566 1565 1565 1564 1564 1563 1562 1561 1560 1559 1558 1557 1556 1554 1553 1552 1551 1550 1548 1547 1546 1546
1562 1561 1561 1561 1560 1560 1561 1561 1561 1561 1561 1561 1561 1562 1562 1563 1563 1564 1565 1565 1565 1566 1565 1565 1565 1564 1563 1563 1562 1561 1560 1559 1558 1556 1555 1553 1552 1551 1550 1549 1548 1547 1546
1562 1561 1561 1561 1561 1561 1561 1562 1562 1562 1562 1562 1562 1563 1563 1563 1564 1564 1565 1565 1566 1565 1566 1566 1565 1565 1564 1563 1562 1561 1560 1559 1558 1557 1555 1554 1553 1551 1550 1549 1548 1547 1546
1562 1562 1562 1562 1562 1562 1562 1562 1562 1563 1563 1563 1563 1563 1564 1564 1564 1564 1565 1565 1565 1566 1565 1566 1565 1565 1564 1563 1562 1561 1560 1560 1559 1557 1556 1554 1553 1552 1550 1549 1548 1547 1545
1561 1561 1562 1562 1562 1562 1562 1562 1563 1563 1563 1564 1564 1564 1564 1564 1564 1564 1565 1565 1565 1566 1565 1566 1566 1565 1564 1563 1562 1561 1560 1559 1558 1557 1556 1555 1553 1552 1550 1549 1547 1546 1545
1561 1561 1562 1562 1562 1562 1562 1563 1563 1563 1564 1564 1564 1564 1564 1565 1565 1565 1565 1565 1565 1565 1565 1565 1565 1564 1564 1563 1562 1561 1560 1559 1558 1556 1555 1554 1553 1551 1550 1548 1547 1545 1544
1560 1561 1561 1561 1561 1562 1562 1562 1563 1563 1563 1564 1564 1564 1564 1565 1564 1564 1564 1564 1565 1565 1565 1564 1564 1564 1563 1562 1561 1560 1559 1558 1557 1555 1554 1553 1552 1551 1549 1548 1546 1544 1543
1559 1560 1560 1560 1560 1561 1561 1562 1562 1563 1563 1563 1563 1564 1564 1564 1564 1564 1564 1564 1564 1564 1564 1563 1563 1562 1562 1561 1560 1559 1557 1557 1556 1555 1553 1552 1550 1549 1548 1546 1545 1543 1541
1558 1558 1559 1559 1559 1560 1560 1561 1561 1562 1562 1562 1563 1563 1563 1563 1563 1563 1563 1563 1563 1562 1562 1562 1561 1561 1560 1559 1558 1557 1556 1555 1554 1553 1551 1550 1548 1547 1546 1544 1543 1541 1540
1556 1557 1557 1557 1558 1558 1559 1559 1560 1560 1561 1561 1561 1562 1562 1562 1562 1561 1561 1561 1561 1561 1560 1560 1559 1559 1558 1557 1556 1555 1554 1553 1551 1551 1549 1548 1547 1545 1544 1542 1541 1539 1537
1554 1555 1555 1556 1556 1556 1557 1558 1558 1558 1559 1559 1560 1560 1560 1560 1560 1560 1559 1559 1559 1559 1559 1558 1557 1556 1556 1555 1554 1553 1551 1550 1549 1548 1547 1544 1544 1542 1541 1539 1538 1536 1535
1552 1552 1553 1554 1554 1555 1555 1556 1556 1557 1557 1557 1558 1558 1558 1558 1558 1557 1557 1557 1556 1556 1556 1555 1555 1554 1553 1552 1551 1550 1549 1547 1546 1545 1544 1541 1540 1538 1537 1536 1534 1533 1531
1550 1550 1551 1552 1552 1553 1553 1554 1554 1555 1555 1555 1556 1556 1556 1555 1555 1555 1555 1554 1554 1553 1553 1552 1552 1551 1550 1549 1548 1547 1545 1544 1541 1540 1540 1538 1536 1534 1533 1531 1530 1529 1527
1547 1548 1549 1549 1550 1551 1551 1552 1552 1552 1552 1552 1553 1553 1553 1553 1553 1552 1552 1551 1550 1550 1549 1549 1548 1547 1546 1545 1544 1543 1542 1540 1538 1536 1535 1534 1532 1530 1527 1526 1525 1524 1522